Hourly Data Report for September 24, 2017

All times are specified in Local Standard Time (LST). Add 1 hour to adjust for Daylight Saving Time where and when it is observed.

MIRAMICHI RCS
NEW BRUNSWICK

47°00'34.000" N
65°27'54.000" W
33.00 m
8100989
71744
ACQ

Download Data

Hourly Data (September 2017)
Hourly Data Report for September 24, 2017
Temp Definition
°C
Dew Point Temp Definition
°C
Rel Hum Definition
%
Wind Dir Definition
10's deg

Wind Spd Definition
km/h
Visibility Definition
km
Stn Press Definition
kPa
Hmdx Definition


Wind Chill Definition


Weather Definition


TIME
00:00 12.2 9.8 85 36 1   101.35     LegendNANA
01:00 12.7 11.6 93 35 6   101.35     LegendNANA
02:00 10.5 9.2 91 31 2   101.33     LegendNANA
03:00 10.0 8.5 90 0 1   101.32     LegendNANA
04:00 9.3 8.2 93 22 3   101.28     LegendNANA
05:00 9.1 8.4 95 24 4   101.26     LegendNANA
06:00 9.2 8.6 96 26 3   101.25     LegendNANA
07:00 10.3 9.2 93   0   101.21     LegendNANA
08:00 12.3 10.9 91 22 4   101.22     LegendNANA
09:00 14.2 12.1 87 3 8   101.25     LegendNANA
10:00 15.4 12.4 82 9 8   101.18     LegendNANA
11:00 17.4 12.3 72 13 5   101.10     LegendNANA
12:00 19.7 12.7 64 15 4   101.04     LegendNANA
13:00 21.8 13.3 59 20 5   101.01 25   LegendNANA
14:00 23.0 14.2 58 31 6   100.99 26   LegendNANA
15:00 22.8 14.4 59 2 6   100.98 26   LegendNANA
16:00 23.1 15.1 61 7 10   100.98 27   LegendNANA
17:00 20.8 15.2 70 7 13   101.04 25   LegendNANA
18:00 19.3 15.2 77 6 12   101.14     LegendNANA
19:00 18.7 15.1 80 1 5   101.22     LegendNANA
20:00 17.3 13.3 77 1 10   101.30     LegendNANA
21:00 16.6 12.8 79 2 6   101.33     LegendNANA
22:00 15.5 12.7 83 2 5   101.35     LegendNANA
23:00 15.0 12.7 86 35 5   101.39     LegendNANA

Notes on Data Quality.

Legend

  • E = Estimated
  • M = Missing
  • NA = Not Available
  • ‡ = Partner data that is not subject to review by the National Climate Archives
Date modified: